Location: Bratislava
(48.1500°N, 17.1170°E)
Time: 05:47:31
(UTC+01:00)

ISS - Pass Details

Date: 28 February 2019
Orbit: 406 x 411 km, 51.6° (Epoch: 20 March)

Event Time Altitude Azimuth Distance (km) Brightness Sun altitude
Exits shadow 05:29:25 17° 242° (WSW) 1,109 -2.2 -11.8°
Maximum altitude 05:31:49 82° 157° (SSE) 415 -3.8 -11.4°
Drops below altitude 10° 05:35:07 10° 68° (ENE) 1,470 0.2 -10.9°
Sets 05:37:12 0° 68° (ENE) 2,334 1.4 -10.5°
